Location: ?????
(37.7324°N, 23.9257°E)
Time: 07:38:42
(UTC+00:00)

ADEOS - Pass Details

Date: 29 November 2020
Orbit: 792 x 795 km, 98.9° (Epoch: 17 January)

Event Time Altitude Azimuth Distance (km) Brightness Sun altitude
Rises 02:48:43 0° 16° (NNE) 3,303 6.9 -29.2°
Reaches altitude 10° 02:51:05 10° 19° (NNE) 2,369 6.1 -28.8°
Maximum altitude 02:56:17 69° 102° (ESE) 850 3.8 -27.7°
Drops below altitude 10° 03:01:28 10° 186° (S) 2,351 6.0 -26.7°
Sets 03:03:47 0° 189° (S) 3,276 6.8 -26.3°
